Washington, DC (20203)

10:58 AM EST on February 14, 2016 (GMT -0500)
Logan Circle | | Change Station
CLOSE
Current Station
Personal Weather Station
Location: Washington, DC
Elevation: 108 ft
Nearby Weather Stations

Elev 108 ft 38.91 °N, 77.03 °W | Updated 24 seconds ago

Clear
Clear
23.9 °F
Feels Like 24 °F
N
0.0
Wind Variable Wind from North
Gusts 0.0 mph

Today
High -- | Low -- °F
--% Chance of Precip.
Yesterday
High -- | Low -- °F
Precip. -- in
Pressure 30.59 in
Visibility 10.0 miles
Clouds Few 5000 ft
Few 25000 ft
Windchill 24 °F
Dew Point 6 °F
Humidity 45%
Rainfall 0.00 in
Snow Depth Not available.
7:01 AM 5:44 PM
Waxing Crescent, 43% visible
METAR KDCA 141552Z 33009G14KT 10SM FEW050 FEW250 M07/M19 A3059 RMK AO2 SLP359 T10671189
Pressure 30.59 in
Visibility 10.0 miles
Clouds Few 5000 ft
Few 25000 ft
Windchill 24 °F
Dew Point 6 °F
Humidity 45%
Rainfall 0.00 in
Snow Depth Not available.
7:01 AM 5:44 PM
Waxing Crescent, 43% visible
METAR KDCA 141552Z 33009G14KT 10SM FEW050 FEW250 M07/M19 A3059 RMK AO2 SLP359 T10671189

10-Day Weather Forecast

Almanac

Astronomy

Feb. 14, 2016 Rise Set
Actual Time
Civil Twilight
Nautical Twilight
Astronomical Twilight
Moon
Length of Visible Light
Length of Day
Tomorrow will be .
, % of the Moon is Illuminated

Today's Extremes

State Highs State Lows

Community

WunderPhotos

Upload Photos

1,892,802 photos uploaded!

WunderBlog® & News

Nearby

Air Quality

  Air Quality AQ Index Pollutant
Not available.

Snow Depth

Station Depth Elevation

Earthquake Activity

City Distance Mag. Time & Date
Minimum magnitude displayed is 2.5.

Coastal Water Temperatures

Place Temperature

Stations

Nearby Weather Stations

Station Location Temp. Windchill Dew Point Humidity Wind Precip. Elev Updated Type
                   

Watches & Warnings

There are currently no watches in effect.